Weather History for Tulsa Jones, OK

Change the Weather History Date:

Sunday, September 16, 2012

  Actual Average (KTUL) Record (KTUL)
Temperature  
Mean Temperature 70 °F 73 °F  
Max Temperature 75 °F 84 °F 103 °F (1956)
Min Temperature 64 °F 62 °F 44 °F (1993)
Degree Days  
Heating Degree Days 0 1  
Month to date heating degree days 2  
Since 1 July heating degree days 2  
Cooling Degree Days 4 8  
Month to date cooling degree days 178  
Year to date cooling degree days 1879  
Growing Degree Days 20 (Base 50)    
Moisture  
Dew Point 62 °F    
Average Humidity 82    
Maximum Humidity 94    
Minimum Humidity 61    
Precipitation  
Precipitation 0.00 in 0.14 in 5.78 in (1971)
Month to date precipitation 2.26  
Year to date precipitation 29.74  
Sea Level Pressure  
Sea Level Pressure 30.06 in    
Wind  
Wind Speed 1 mph (South)    
Max Wind Speed 6 mph    
Max Gust Speed -    
Visibility 8 miles    
Events      
T = Trace of Precipitation, MM = Missing Value Source: NWS Daily Summary

Daily Weather History Graph

Daily Weather History Graph

Search for Another Location

Airport:

Trip Planner

Search our weather history database for the weather conditions in past years. The results will help you decide how hot, cold, wet, or windy it might be!

Date:

Astronomy

Sep. 16, 2012 Rise Set
Actual Time 7:07 AM CDT 7:28 PM CDT
Civil Twilight 6:41 AM CDT 7:54 PM CDT
Nautical Twilight 6:11 AM CDT 8:24 PM CDT
Astronomical Twilight 5:41 AM CDT 8:55 PM CDT
Moon 7:45 AM CDT (9/16) 7:38 PM CDT (9/16)
Length of Visible Light 13h 12m
Length of Day
12h 21m
New Moon, 0% of the Moon is Illuminated
Sep 16
New Moon
Sep 22
First Quarter
Sep 29
Full
Oct 8
Last Quarter
Oct 15
New

Hourly Weather History & Observations

Time (CDT) Temp. Dew Point Humidity Pressure Visibility Wind Dir Wind Speed Gust Speed Precip Events Conditions
12:05 AM 66.2 °F 64.4 °F 94% 30.10 in 10.0 mi Calm Calm - N/A   Overcast
12:32 AM 66.2 °F 64.4 °F 94% 30.09 in 10.0 mi Calm Calm - N/A   Overcast
12:53 AM 66.9 °F 64.9 °F 93% 30.12 in 9.0 mi Calm Calm - N/A   Overcast
1:19 AM 66.2 °F 64.4 °F 94% 30.09 in 9.0 mi Calm Calm - N/A   Overcast
1:53 AM 68.0 °F 64.9 °F 90% 30.11 in 9.0 mi Calm Calm - N/A   Overcast
2:35 AM 66.2 °F 64.4 °F 94% 30.08 in 10.0 mi Calm Calm - N/A   Overcast
2:43 AM 66.2 °F 64.4 °F 94% 30.08 in 10.0 mi Calm Calm - N/A   Overcast
2:53 AM 66.9 °F 64.0 °F 90% 30.10 in 9.0 mi Calm Calm - N/A   Overcast
3:53 AM 66.9 °F 64.0 °F 90% 30.08 in 8.0 mi Calm Calm - N/A   Overcast
4:53 AM 66.9 °F 64.0 °F 90% 30.07 in 7.0 mi Calm Calm - N/A   Overcast
5:53 AM 66.0 °F 64.0 °F 93% 30.07 in 7.0 mi Calm Calm - N/A   Mostly Cloudy
6:21 AM 66.2 °F 62.6 °F 88% 30.06 in 5.0 mi Calm Calm - N/A   Overcast
6:53 AM 66.0 °F 64.0 °F 93% 30.07 in 6.0 mi Calm Calm - N/A   Overcast
7:27 AM 66.2 °F 62.6 °F 88% 30.06 in 5.0 mi Calm Calm - N/A   Overcast
7:53 AM 66.9 °F 63.0 °F 87% 30.08 in 5.0 mi Calm Calm - N/A   Overcast
8:51 AM 66.2 °F 62.6 °F 88% 30.07 in 6.0 mi Calm Calm - N/A   Overcast
8:53 AM 66.9 °F 63.0 °F 87% 30.09 in 6.0 mi Calm Calm - N/A   Overcast
9:23 AM 66.2 °F 62.6 °F 88% 30.07 in 6.0 mi Calm Calm - N/A   Overcast
9:30 AM 66.2 °F 62.6 °F 88% 30.07 in 6.0 mi Calm Calm - N/A   Overcast
9:44 AM 66.2 °F 62.6 °F 88% 30.08 in 7.0 mi Calm Calm - N/A   Overcast
9:53 AM 68.0 °F 63.0 °F 84% 30.09 in 7.0 mi Calm Calm - N/A   Overcast
10:07 AM 68.0 °F 62.6 °F 83% 30.07 in 8.0 mi Calm Calm - N/A   Overcast
10:35 AM 69.8 °F 62.6 °F 78% 30.08 in 9.0 mi SSW 3.5 mph - N/A   Overcast
10:53 AM 69.1 °F 62.1 °F 78% 30.10 in 10.0 mi Calm Calm - N/A   Overcast
11:24 AM 69.8 °F 62.6 °F 78% 30.08 in 10.0 mi Calm Calm - N/A   Overcast
11:53 AM 71.1 °F 60.1 °F 68% 30.08 in 10.0 mi Calm Calm - N/A   Overcast
12:53 PM 72.0 °F 59.0 °F 64% 30.07 in 10.0 mi SSW 3.5 mph - N/A   Overcast
1:53 PM 73.0 °F 59.0 °F 61% 30.05 in 10.0 mi Variable 3.5 mph - N/A   Overcast
2:53 PM 73.0 °F 59.0 °F 61% 30.04 in 10.0 mi SW 3.5 mph - N/A   Overcast
3:53 PM 73.9 °F 60.1 °F 62% 30.02 in 10.0 mi SW 3.5 mph - N/A   Overcast
4:53 PM 73.9 °F 60.1 °F 62% 30.00 in 10.0 mi South 4.6 mph - N/A   Overcast
5:53 PM 73.9 °F 60.1 °F 62% 29.99 in 10.0 mi South 4.6 mph - N/A   Overcast
6:53 PM 73.0 °F 61.0 °F 66% 29.99 in 10.0 mi SSE 5.8 mph - N/A   Overcast
7:53 PM 71.1 °F 61.0 °F 70% 29.99 in 10.0 mi South 3.5 mph - N/A   Clear
8:53 PM 66.9 °F 62.1 °F 84% 30.00 in 10.0 mi Calm Calm - N/A   Clear
9:53 PM 68.0 °F 61.0 °F 78% 30.00 in 10.0 mi South 3.5 mph - N/A   Clear
10:53 PM 66.9 °F 61.0 °F 81% 30.00 in 10.0 mi South 3.5 mph - N/A   Clear
11:53 PM 64.0 °F 61.0 °F 90% 30.01 in 10.0 mi Calm Calm - N/A   Clear